Home   Weather   41°56'N, 72°36'W   Past weeks
Flag for USA

Past Weather in 41°56'N, 72°36'W, USA — Yesterday and Last 2 Weeks

Now
91 °F

Passing clouds.


Feels Like: 101 °F
Forecast: 98 / 78 °F
Wind: 5 mph from North

Location: Hartford-Brainard Airport

Current Time: Jul 20, 2019 at 12:46:49 pm

Latest Report: Jul 20, 2019 at 11:53 am


Visibility: 10 mi

Pressure: 29.82 "Hg

Humidity: 57%

Dew Point: 74 °F

Location of 41°56'N, 72°36'WLocation

Past Weather in 41°56'N, 72°36'W — Graph

°F

41°56'N, 72°36'W Temperature Yesterday

Maximum temperature yesterday: 89 °F (at 4:53 pm)
Minimum temperature yesterday: 70 °F (at 1:53 am)
Average temperature yesterday: 78 °F

High & Low Weather Summary for the Past Weeks

 TemperatureHumidityPressure
High93 °F (Jul 17, 2:53 pm)97% (Jul 6, 6:36 pm)30.16 "Hg (Jul 6, 6:36 pm)
Low62 °F (Jul 16, 5:53 am)29% (Jul 10, 4:53 pm)29.67 "Hg (Jul 12, 3:53 pm)
Average77 °F69%29.92 "Hg
* Reported Jul 5 10:53 am — Jul 20 10:53 am, 41°56'N, 72°36'W. Weather by CustomWeather, © 2019

Note: Actual official high and low records may vary slightly from our data, if they occured in-between our weather recording intervals... More about our weather records

Advertising

41°56'N, 72°36'W Weather History for the Previous 24 Hours

Scroll right to see more
 ConditionsComfort  
Time TempWeatherWind HumidityBarometerVisibility
10:53 am
Sat, Jul 20
91 °FSunny.5 mph60%29.81 "Hg10 mi
9:53 am88 °FSunny.No wind63%29.82 "Hg10 mi
8:53 am87 °FSunny.7 mph65%29.83 "Hg10 mi
7:53 am83 °FSunny.No wind74%29.83 "Hg10 mi
6:53 am79 °FSunny.No wind90%29.83 "Hg7 mi
5:53 am77 °FSunny.No wind94%29.81 "Hg8 mi
4:53 am78 °FClear.3 mph90%29.80 "Hg8 mi
3:53 am78 °FFog.5 mph90%29.80 "Hg6 mi
2:53 am78 °FClear.3 mph90%29.79 "Hg7 mi
1:53 am79 °FClear.3 mph88%29.79 "Hg7 mi
12:53 am79 °FClear.3 mph88%29.80 "Hg7 mi
11:53 pm
Fri, Jul 19
79 °FClear.3 mph90%29.80 "Hg8 mi
10:53 pm81 °FClear.7 mph82%29.80 "Hg9 mi
9:53 pm81 °FClear.7 mph82%29.81 "Hg10 mi
8:53 pm83 °FClear.6 mph77%29.79 "Hg10 mi
7:53 pm85 °FSunny.10 mph72%29.78 "Hg10 mi
6:53 pm87 °FSunny.12 mph67%29.79 "Hg10 mi
5:53 pm88 °FPartly sunny.8 mph67%29.79 "Hg10 mi
4:53 pm89 °FScattered clouds.12 mph65%29.80 "Hg10 mi
3:53 pm88 °FPassing clouds.10 mph63%29.81 "Hg10 mi
2:53 pm88 °FSunny.13 mph63%29.81 "Hg10 mi
1:53 pm86 °FSunny.9 mph65%29.83 "Hg10 mi
12:53 pm84 °FSunny.7 mph67%29.85 "Hg10 mi
Weather by CustomWeather, © 2019

See weather overview